Temp
-12 -12 -12 -12 -12 -11 -12 -12 -11 -12 -12 -12 -11 -11 -11 -11 -11 -11 -11 -11 -11 -11 -10 -10 -10 -10 -11 -11 -11 -11 -11 -11 -11 -11 -11 -12 -12 -12 -12 -12 -13 -13 -13 -13
-12 -12 -13 -13 -13 -12 -12 -12 -12 -12 -12 -12 -11 -11 -11 -11 -11 -11 -11 -11 -11 -11 -10 -10 -10 -11 -11 -11 -11 -11 -12 -12 -12 -12 -12 -12 -12 -13 -13 -13 -13 -13 -13 -13
-13 -12 -13 -13 -13 -13 -13 -12 -13 -13 -12 -12 -11 -11 -11 -11 -11 -11 -11 -11 -11 -11 -11 -11 -11 -11 -11 -11 -11 -12 -12 -12 -13 -13 -13 -13 -13 -13 -13 -13 -13 -13 -13 -13
-13 -12 -12 -13 -13 -13 -13 -13 -13 -13 -12 -12 -12 -10 -10 -11 -11 -11 -11 -11 -11 -11 -11 -11 -11 -11 -11 -12 -12 -12 -12 -13 -13 -13 -13 -13 -13 -13 -14 -14 -14 -14 -14 -14
-12 -12 -12 -12 -13 -13 -13 -13 -13 -12 -12 -11 -11 -12 -10 -11 -12 -12 -12 -12 -12 -12 -12 -12 -12 -12 -13 -13 -13 -13 -13 -13 -13 -13 -13 -13 -13 -14 -14 -14 -14 -14 -14 -15
-12 -12 -12 -12 -13 -13 -13 -13 -13 -12 -12 -11 -12 -12 -10 -11 -12 -12 -12 -12 -12 -12 -12 -12 -12 -13 -13 -13 -13 -13 -14 -14 -14 -14 -14 -14 -15 -15 -15 -15 -14 -15 -15 -15
-13 -13 -13 -12 -13 -13 -13 -13 -13 -13 -12 -11 -12 -12 -11 -12 -12 -12 -12 -13 -13 -12 -13 -13 -13 -14 -14 -14 -14 -14 -14 -14 -14 -15 -15 -15 -15 -15 -16 -16 -16 -16 -16 -15
-13 -13 -13 -13 -14 -14 -13 -14 -13 -13 -13 -12 -12 -11 -12 -12 -13 -13 -13 -13 -13 -13 -13 -14 -14 -14 -14 -15 -15 -15 -15 -15 -15 -16 -16 -15 -15 -15 -16 -16 -16 -16 -16 -16
-14 -13 -14 -14 -14 -14 -13 -13 -14 -14 -14 -13 -12 -12 -12 -12 -13 -13 -13 -14 -14 -14 -14 -15 -15 -15 -15 -15 -15 -16 -16 -16 -16 -16 -16 -17 -18 -16 -17 -17 -17 -18 -18 -18
-14 -14 -14 -14 -14 -14 -14 -14 -14 -14 -14 -14 -13 -12 -13 -13 -13 -13 -14 -14 -14 -15 -15 -15 -15 -15 -15 -16 -16 -16 -17 -17 -17 -17 -17 -18 -18 -18 -18 -18 -18 -18 -18 -18
-14 -15 -14 -14 -13 -14 -15 -14 -15 -15 -15 -14 -14 -13 -13 -13 -14 -14 -14 -14 -15 -15 -15 -15 -16 -16 -16 -16 -17 -17 -17 -18 -18 -18 -18 -18 -19 -19 -19 -19 -19 -19 -19 -19
-15 -15 -14 -14 -14 -14 -14 -14 -14 -14 -14 -15 -15 -13 -14 -14 -14 -14 -15 -16 -16 -16 -16 -16 -16 -17 -17 -17 -17 -18 -18 -18 -19 -19 -19 -19 -19 -19 -19 -19 -19 -19 -20 -20
-15 -15 -15 -15 -14 -14 -14 -14 -15 -15 -15 -14 -15 -13 -15 -14 -15 -16 -16 -16 -16 -16 -17 -17 -17 -18 -18 -18 -18 -19 -19 -19 -19 -19 -19 -19 -20 -20 -20 -20 -21 -20 -20 -21
-15 -15 -15 -15 -15 -15 -15 -15 -15 -16 -16 -14 -14 -15 -15 -15 -16 -16 -16 -16 -16 -17 -17 -17 -17 -18 -18 -19 -19 -20 -20 -19 -20 -20 -20 -20 -20 -21 -21 -21 -21 -21 -21 -22
-16 -16 -16 -16 -16 -16 -15 -15 -15 -15 -15 -16 -15 -15 -16 -17 -16 -16 -17 -17 -17 -17 -18 -18 -19 -19 -19 -19 -20 -20 -20 -20 -20 -21 -21 -21 -21 -21 -21 -21 -22 -22 -23 -23
-17 -16 -16 -16 -16 -16 -16 -16 -15 -16 -15 -16 -16 -15 -16 -17 -18 -17 -18 -18 -18 -18 -19 -19 -19 -20 -19 -19 -19 -20 -21 -21 -21 -22 -21 -22 -22 -22 -23 -23 -24 -24 -24 -24
-17 -17 -17 -17 -17 -17 -17 -16 -16 -16 -16 -17 -17 -17 -18 -18 -18 -18 -19 -19 -19 -19 -20 -19 -20 -19 -20 -20 -21 -21 -21 -22 -22 -23 -23 -23 -24 -24 -24 -25 -25 -25 -25 -25
-17 -17 -18 -18 -18 -18 -17 -17 -17 -17 -17 -17 -18 -18 -18 -19 -19 -20 -20 -20 -20 -20 -20 -20 -20 -20 -21 -21 -22 -22 -22 -23 -24 -24 -24 -24 -25 -25 -25 -26 -26 -26 -26 -26
-18 -18 -18 -18 -18 -18 -18 -18 -18 -18 -18 -18 -18 -19 -19 -19 -20 -20 -20 -20 -20 -20 -20 -21 -21 -21 -21 -22 -23 -23 -24 -24 -25 -25 -25 -26 -26 -26 -26 -27 -27 -27 -28 -28
-19 -19 -19 -19 -19 -19 -18 -19 -19 -19 -19 -20 -20 -19 -19 -20 -20 -20 -20 -21 -21 -21 -21 -21 -22 -22 -23 -23 -24 -24 -25 -26 -26 -26 -26 -26 -27 -27 -28 -28 -29 -29 -30 -30
-20 -20 -19 -20 -20 -20 -19 -20 -20 -20 -20 -20 -20 -20 -20 -21 -21 -22 -22 -22 -22 -22 -22 -22 -23 -23 -24 -25 -25 -26 -26 -26 -27 -27 -27 -27 -28 -29 -29 -30 -31 -31 -31 -31
-21 -20 -20 -20 -21 -21 -21 -21 -21 -21 -21 -21 -21 -21 -21 -22 -22 -23 -22 -23 -23 -23 -23 -24 -25 -25 -25 -25 -26 -26 -27 -27 -27 -28 -28 -29 -29 -30 -31 -32 -32 -32 -32 -32
-22 -22 -21 -21 -21 -22 -22 -22 -22 -22 -22 -22 -22 -22 -22 -22 -23 -23 -23 -24 -24 -25 -25 -26 -26 -26 -26 -27 -27 -27 -27 -28 -28 -29 -29 -30 -31 -32 -32 -32 -33 -33 -33 -33
-23 -23 -23 -22 -22 -23 -23 -23 -23 -23 -23 -23 -23 -23 -23 -24 -24 -24 -25 -25 -25 -26 -26 -26 -26 -27 -27 -26 -27 -27 -28 -29 -29 -30 -31 -32 -32 -33 -33 -34 -34 -34 -35 -35
-23 -23 -23 -23 -24 -24 -25 -25 -25 -24 -24 -24 -24 -24 -24 -25 -25 -25 -26 -26 -26 -26 -26 -27 -27 -27 -27 -27 -28 -28 -29 -30 -30 -31 -32 -33 -33 -34 -34 -35 -35 -36 -36 -36
-23 -24 -24 -24 -24 -25 -26 -26 -26 -25 -26 -25 -25 -25 -26 -26 -26 -26 -26 -27 -27 -27 -27 -27 -27 -28 -28 -28 -29 -30 -30 -31 -32 -33 -33 -34 -34 -35 -35 -36 -37 -37 -37 -37
Height
5809 5809 5814 5814 5811 5810 5810 5810 5811 5813 5810 5808 5807 5807 5805 5805 5806 5806 5805 5805 5804 5804 5803 5802 5801 5801 5800 5799 5798 5798 5797 5796 5795 5795 5794 5793 5793 5792 5792 5790 5789 5788 5787 5786
5801 5801 5804 5802 5802 5802 5802 5802 5803 5803 5800 5797 5799 5799 5796 5797 5798 5798 5797 5796 5796 5795 5795 5794 5793 5793 5792 5792 5791 5790 5789 5788 5787 5786 5785 5785 5784 5784 5784 5783 5782 5780 5779 5777
5791 5790 5792 5792 5793 5793 5793 5792 5793 5791 5790 5788 5788 5787 5788 5789 5789 5789 5788 5788 5788 5787 5787 5787 5786 5785 5784 5784 5783 5783 5782 5781 5779 5779 5778 5777 5776 5774 5772 5772 5771 5770 5768 5767
5778 5779 5780 5781 5781 5783 5781 5783 5781 5780 5780 5778 5780 5775 5778 5783 5780 5780 5779 5779 5779 5779 5779 5779 5778 5777 5777 5776 5776 5775 5774 5773 5772 5771 5769 5768 5767 5766 5765 5763 5761 5759 5758 5756
5767 5766 5768 5768 5771 5770 5772 5771 5770 5768 5769 5767 5767 5769 5767 5773 5772 5771 5770 5770 5770 5770 5769 5769 5769 5769 5769 5769 5768 5766 5765 5764 5763 5763 5761 5758 5756 5754 5753 5752 5750 5749 5746 5744
5753 5755 5756 5758 5758 5758 5759 5760 5760 5759 5758 5755 5760 5761 5758 5762 5762 5763 5762 5762 5761 5760 5760 5760 5760 5760 5759 5759 5758 5756 5755 5753 5753 5752 5751 5750 5748 5745 5741 5738 5736 5734 5733 5731
5742 5743 5744 5745 5745 5746 5749 5749 5748 5747 5745 5749 5750 5750 5750 5749 5750 5752 5752 5752 5752 5751 5751 5751 5751 5751 5750 5748 5747 5746 5745 5743 5741 5740 5738 5737 5735 5732 5729 5726 5722 5720 5717 5715
5729 5731 5733 5736 5736 5736 5736 5737 5738 5736 5737 5739 5739 5737 5741 5742 5742 5741 5741 5741 5741 5741 5741 5741 5741 5740 5739 5738 5736 5735 5733 5731 5728 5726 5724 5723 5721 5718 5716 5713 5710 5705 5702 5699
5719 5720 5723 5725 5725 5726 5728 5728 5731 5727 5728 5728 5728 5730 5732 5731 5732 5731 5732 5732 5732 5732 5732 5731 5731 5729 5727 5725 5723 5721 5720 5718 5716 5714 5712 5709 5704 5702 5700 5697 5696 5689 5685 5683
5709 5710 5713 5715 5716 5717 5718 5722 5719 5718 5718 5718 5718 5720 5721 5721 5721 5721 5722 5722 5721 5721 5720 5719 5718 5716 5714 5712 5710 5707 5705 5702 5701 5698 5696 5693 5691 5689 5684 5680 5678 5672 5669 5665
5698 5700 5703 5704 5706 5709 5709 5709 5709 5709 5708 5708 5709 5710 5709 5709 5710 5709 5710 5710 5710 5709 5708 5707 5704 5702 5701 5699 5696 5694 5691 5688 5685 5683 5680 5678 5674 5672 5667 5663 5660 5654 5651 5646
5687 5684 5688 5691 5693 5694 5695 5697 5697 5697 5700 5700 5698 5699 5696 5696 5697 5697 5698 5697 5696 5695 5693 5691 5690 5688 5687 5684 5681 5678 5676 5675 5672 5669 5666 5662 5657 5654 5648 5645 5641 5636 5631 5626
5674 5670 5672 5675 5679 5680 5683 5687 5688 5687 5685 5686 5684 5688 5684 5685 5684 5683 5683 5683 5683 5681 5679 5677 5676 5675 5673 5670 5667 5664 5662 5660 5656 5652 5649 5646 5640 5636 5630 5626 5622 5616 5610 5604
5656 5654 5659 5663 5667 5667 5668 5671 5673 5671 5669 5672 5674 5675 5672 5672 5671 5669 5669 5669 5667 5666 5665 5664 5663 5660 5658 5655 5653 5650 5646 5643 5638 5634 5631 5627 5621 5616 5611 5606 5599 5593 5587 5581
5639 5640 5644 5649 5649 5649 5654 5655 5656 5653 5660 5652 5664 5658 5659 5656 5655 5656 5655 5654 5654 5653 5651 5650 5648 5645 5642 5640 5637 5632 5628 5624 5619 5615 5612 5606 5600 5595 5590 5583 5577 5571 5564 5558
5625 5624 5628 5630 5633 5633 5633 5636 5638 5640 5641 5639 5643 5646 5643 5643 5641 5641 5642 5640 5640 5638 5637 5635 5632 5630 5627 5624 5620 5616 5611 5606 5601 5597 5592 5585 5580 5574 5568 5562 5555 5548 5541 5534
5609 5611 5612 5612 5615 5616 5612 5623 5625 5626 5626 5627 5626 5634 5629 5627 5626 5627 5626 5625 5625 5624 5622 5620 5618 5615 5612 5607 5602 5598 5593 5588 5582 5578 5572 5565 5559 5554 5547 5540 5533 5526 5518 5511
5595 5596 5597 5597 5598 5596 5604 5608 5610 5610 5610 5610 5611 5614 5613 5613 5613 5613 5613 5611 5609 5607 5605 5603 5599 5597 5593 5588 5584 5579 5574 5568 5563 5557 5551 5545 5539 5533 5526 5518 5510 5502 5495 5487
5582 5583 5582 5581 5581 5586 5589 5596 5597 5593 5595 5595 5597 5597 5596 5596 5596 5599 5599 5595 5593 5591 5588 5585 5582 5577 5574 5570 5565 5560 5555 5550 5543 5538 5532 5527 5522 5514 5506 5497 5489 5480 5473 5465
5571 5573 5571 5570 5569 5569 5579 5581 5581 5577 5578 5582 5580 5581 5579 5579 5580 5582 5579 5580 5577 5574 5572 5568 5563 5559 5554 5550 5546 5543 5538 5531 5526 5520 5515 5509 5502 5493 5484 5476 5468 5460 5452 5446
5558 5560 5558 5557 5554 5555 5565 5566 5564 5563 5569 5565 5565 5566 5565 5564 5563 5563 5562 5561 5559 5556 5553 5550 5545 5541 5537 5533 5528 5525 5520 5515 5508 5502 5497 5490 5481 5472 5464 5457 5448 5441 5434 5427
5546 5543 5545 5542 5540 5542 5550 5547 5548 5547 5547 5548 5550 5549 5548 5548 5547 5545 5544 5542 5541 5538 5536 5533 5528 5524 5521 5516 5511 5508 5504 5497 5490 5483 5477 5470 5461 5452 5446 5439 5431 5423 5416 5409
5526 5528 5530 5530 5529 5527 5526 5527 5526 5527 5528 5531 5531 5531 5532 5531 5529 5527 5525 5524 5522 5520 5517 5513 5510 5507 5503 5498 5494 5490 5483 5478 5471 5464 5457 5450 5443 5436 5429 5422 5415 5407 5399 5391
5512 5512 5511 5512 5514 5509 5507 5507 5508 5506 5510 5512 5511 5512 5514 5513 5511 5508 5507 5506 5504 5500 5497 5495 5492 5489 5485 5479 5474 5470 5466 5459 5452 5446 5440 5434 5428 5422 5414 5407 5400 5391 5382 5374
5498 5494 5496 5493 5492 5489 5488 5487 5487 5489 5492 5493 5494 5495 5496 5495 5492 5489 5487 5487 5485 5483 5481 5478 5474 5470 5466 5461 5458 5453 5448 5441 5435 5430 5425 5420 5414 5407 5400 5392 5384 5376 5367 5358
5482 5479 5476 5472 5469 5468 5469 5471 5473 5476 5476 5476 5478 5479 5479 5478 5475 5473 5472 5470 5469 5467 5464 5461 5456 5452 5449 5445 5441 5436 5430 5425 5420 5415 5410 5404 5398 5393 5386 5379 5371 5361 5353 5343
Wind_Speed
40 41 36 33 36 37 36 34 33 31 35 37 37 37 39 38 36 33 33 34 35 35 33 30 30 29 30 30 30 30 30 29 29 29 30 31 32 34 35 36 36 38 39 39
42 42 37 40 40 40 39 40 36 36 39 42 40 39 42 39 36 35 36 37 35 33 32 30 30 30 30 31 31 31 30 30 30 31 32 33 34 36 37 39 40 41 42 43
45 45 43 43 44 40 40 42 42 43 41 43 43 38 37 34 38 36 32 30 30 29 29 30 31 31 31 31 32 32 33 33 33 34 35 35 36 37 38 40 42 44 45 47
50 50 49 46 44 42 44 43 43 45 46 46 43 43 38 32 35 34 33 31 29 29 30 30 31 32 31 32 32 33 35 36 37 37 37 36 36 37 39 40 42 44 46 48
49 49 49 47 42 45 45 44 45 45 46 47 44 41 41 34 32 33 33 32 31 31 30 31 32 32 32 33 34 35 36 37 38 39 40 40 39 41 43 45 48 50 53 55
48 45 44 43 45 47 49 44 42 43 45 49 44 39 41 33 34 34 33 32 32 34 34 34 35 34 34 34 35 36 37 37 38 40 43 45 46 47 49 50 53 56 59 62
41 43 43 45 44 44 42 42 42 43 44 43 41 40 40 37 36 34 33 32 33 35 36 35 34 33 34 35 36 37 39 41 43 46 48 50 53 55 56 59 59 60 62 64
39 38 38 38 35 37 38 40 41 42 42 42 42 46 41 39 34 32 32 32 33 33 34 34 33 34 36 38 41 42 45 48 49 50 51 54 58 61 64 65 66 64 65 66
35 37 34 35 37 39 39 40 36 38 39 43 44 42 39 38 36 35 34 33 33 35 35 35 37 40 41 44 46 47 48 50 53 55 58 60 60 65 66 65 68 64 65 68
38 39 38 36 37 40 40 36 38 41 43 43 45 43 42 41 41 39 37 37 39 39 40 41 42 43 45 47 48 49 51 53 56 58 62 62 63 66 65 66 69 65 68 70
42 42 44 43 43 40 40 41 42 43 45 45 45 45 44 45 45 44 41 41 40 41 41 43 45 46 48 50 52 54 55 56 57 61 63 64 64 67 66 67 70 70 74 77
47 47 48 48 47 47 47 45 45 46 45 45 46 48 50 49 48 48 44 42 42 43 44 47 49 50 51 54 56 57 57 62 58 60 64 66 68 69 69 72 75 77 79 82
49 51 47 49 49 50 48 48 48 47 48 49 50 49 50 51 50 47 47 48 48 49 49 51 51 52 55 57 60 59 59 64 62 64 68 72 71 72 73 76 78 81 84 88
50 54 53 52 52 53 52 51 50 51 54 53 52 50 52 51 48 49 50 51 53 55 56 55 55 55 57 58 58 58 60 64 66 69 72 75 73 74 76 81 84 87 90 92
53 54 55 52 52 55 54 54 55 58 53 57 52 52 49 50 52 51 55 58 58 59 57 54 55 57 59 57 58 61 66 69 70 72 75 75 76 79 82 86 87 89 91 93
53 57 58 59 53 52 53 56 59 60 58 57 56 54 49 49 51 56 58 59 59 55 54 58 57 57 59 63 66 69 69 70 72 74 78 78 79 83 85 86 87 89 91 93
54 49 49 54 50 51 56 50 51 52 53 55 56 49 51 54 56 56 56 56 55 53 57 57 59 63 66 65 68 69 72 73 74 76 77 78 80 82 84 86 88 90 91 94
48 47 48 50 53 57 55 51 51 53 53 55 59 59 61 61 59 55 55 56 58 60 61 62 62 64 65 68 69 72 74 75 75 76 78 79 80 82 84 87 90 91 93 94
45 50 49 49 50 53 52 51 55 56 56 56 57 58 57 55 53 52 54 59 62 63 62 62 65 68 70 71 71 72 72 73 74 75 76 78 80 83 86 88 89 90 88 85
38 45 42 50 55 58 53 52 50 51 53 52 53 54 56 54 57 57 58 57 58 60 62 65 68 69 69 69 69 69 69 70 71 73 76 78 81 84 84 83 81 79 78 75
46 51 53 52 53 56 53 53 55 57 53 53 55 57 60 59 57 56 57 59 60 62 64 67 68 67 66 66 65 66 67 69 72 75 77 78 78 77 76 74 72 71 71 72
53 57 57 59 61 61 56 58 59 61 62 62 61 63 64 61 58 58 60 62 63 64 64 64 61 61 62 63 63 65 67 70 71 70 69 70 70 69 67 66 68 69 71 71
58 60 61 66 71 71 67 64 61 62 64 62 62 61 60 60 61 61 63 63 63 61 58 56 57 58 59 61 63 64 63 62 63 65 67 66 65 63 63 65 67 67 67 69
59 59 58 58 61 62 61 60 60 59 59 59 60 59 58 58 58 59 58 57 56 54 54 57 58 58 59 60 58 57 59 59 61 63 62 60 60 61 62 62 62 63 65 67
55 56 57 57 56 57 56 57 58 58 58 57 57 57 56 54 53 53 53 52 52 53 55 55 56 56 55 55 56 55 55 57 59 59 58 58 58 58 59 59 59 61 64 67
49 47 51 53 54 54 53 53 53 53 52 53 53 51 49 49 50 51 52 52 52 53 54 52 51 52 54 54 52 52 53 55 55 56 56 55 56 56 55 54 56 61 64 67
Wind_Direction
271 272 275 274 267 268 271 270 268 269 268 267 268 270 272 272 273 272 272 273 276 279 277 276 277 276 275 275 275 275 274 272 270 269 270 271 270 271 272 271 271 272 271 272
271 275 275 266 268 268 268 269 270 269 269 267 270 270 268 270 269 270 273 272 272 270 273 273 274 275 276 277 277 276 274 272 270 269 268 268 270 272 273 275 276 276 275 273
272 274 274 270 264 268 269 270 269 266 265 267 271 269 269 273 268 270 271 267 267 268 270 273 274 275 275 276 277 278 277 275 273 273 273 273 274 273 273 274 274 274 275 275
266 269 274 272 260 261 268 267 270 267 265 269 267 268 271 270 270 266 269 269 268 269 271 273 275 274 272 271 272 272 271 271 272 272 272 273 275 277 279 277 276 276 275 274
266 264 262 264 263 260 265 267 268 266 264 265 266 270 272 273 266 268 271 273 273 274 275 274 273 272 271 271 271 269 270 271 272 272 272 271 272 275 278 277 278 278 277 276
261 262 263 261 258 260 264 264 267 265 263 264 267 272 270 273 269 275 274 275 275 275 275 275 274 273 271 269 267 266 266 266 269 271 274 276 278 277 276 274 274 274 277 278
261 260 260 259 258 259 262 265 265 262 260 265 269 267 268 275 278 277 279 276 273 275 276 275 274 273 270 266 267 267 269 269 271 273 275 277 278 279 278 279 278 278 278 278
256 256 255 255 254 253 251 252 257 263 267 268 265 268 273 276 279 279 274 272 273 274 274 274 273 272 270 270 272 274 275 273 274 274 276 277 277 277 278 279 279 279 279 278
257 254 249 249 249 251 256 258 262 263 264 266 269 272 274 277 279 278 276 274 274 273 272 273 273 273 274 275 274 274 274 275 276 277 277 276 276 276 275 277 277 277 278 277
253 254 254 254 255 256 259 259 260 263 265 268 269 271 276 276 275 280 279 278 278 276 275 276 277 277 277 277 276 275 275 274 275 277 277 278 279 279 279 278 277 280 280 281
255 252 257 257 261 262 259 260 261 262 262 268 273 276 274 273 275 277 276 277 278 276 274 275 276 278 279 280 279 277 277 276 277 278 278 279 278 278 279 281 282 283 283 283
258 259 258 260 257 255 255 258 260 263 268 270 270 271 274 276 278 279 279 277 277 276 276 276 279 281 283 282 280 278 278 277 281 280 280 280 280 281 282 283 283 283 283 283
264 263 261 256 256 255 260 266 267 264 265 266 266 273 276 279 281 279 277 278 281 280 279 280 282 281 279 278 277 276 278 277 281 282 282 281 281 282 283 284 285 286 286 287
254 264 264 260 259 258 261 263 261 262 261 267 272 273 274 277 276 278 277 280 279 280 280 280 282 281 280 279 278 278 277 278 280 282 282 282 285 287 289 289 289 289 288 289
259 262 260 259 258 256 257 257 260 262 265 262 271 269 269 267 272 279 279 278 276 276 277 279 280 281 279 280 281 280 280 281 283 283 285 288 289 289 289 288 289 289 289 290
259 265 264 264 263 260 259 257 259 259 261 266 271 273 268 271 273 274 273 272 271 274 280 284 283 281 282 282 281 282 283 285 286 288 288 288 288 288 289 289 290 291 292 293
258 258 264 264 258 259 259 261 261 264 265 267 267 267 265 266 267 268 269 268 268 275 279 281 281 281 281 282 283 285 286 286 286 286 287 288 289 290 291 291 292 292 293 294
244 240 250 256 258 262 264 266 267 265 263 267 271 267 263 264 268 273 275 274 274 275 280 281 281 281 282 282 282 282 283 284 285 287 289 289 290 291 291 292 292 293 294 295
263 261 261 262 263 263 264 264 263 263 262 263 264 266 267 271 272 272 274 276 277 281 281 281 281 280 280 279 281 282 283 285 286 287 288 290 291 292 292 292 293 294 294 295
263 258 252 254 252 250 252 252 256 260 262 263 263 263 264 267 276 279 278 281 281 279 280 278 277 277 279 280 281 283 284 285 287 289 290 291 292 291 291 292 293 295 297 299
259 254 246 246 251 254 256 260 264 266 270 268 270 272 276 279 281 284 285 282 279 274 274 275 277 278 280 281 282 283 285 287 288 289 290 290 290 291 293 295 297 298 299 299
258 252 252 255 265 268 265 267 269 271 274 275 275 276 279 282 282 280 277 275 275 275 276 276 277 278 280 281 282 284 286 287 288 289 290 291 292 294 296 297 297 299 301 302
264 263 262 262 267 274 277 277 275 274 274 275 277 276 277 278 277 276 275 275 276 277 279 279 280 280 280 282 286 288 288 289 291 292 292 293 295 296 297 298 300 302 302 303
262 265 265 266 268 269 270 272 273 273 273 274 274 275 275 274 273 274 276 277 279 280 281 280 280 283 285 286 287 287 290 292 293 292 293 294 295 296 298 300 302 303 306 308
268 270 272 271 269 266 266 266 267 268 271 273 274 275 275 277 279 280 280 280 280 280 280 282 285 285 284 285 288 292 293 292 292 293 293 294 296 298 300 304 306 309 310 311
271 271 266 262 264 264 265 267 269 273 274 274 275 277 279 280 279 279 281 281 281 283 285 284 281 281 283 289 291 292 291 290 292 292 294 296 298 301 305 307 313 316 316 316